EW8324 Weather Reports


Display with metric or nautical units.
time (UTC)temp
F
wind
direction
speed
MPH
gust
MPH
rain 1hr
in
rain 24hr
in
rain mn
in
humidity
%
barometer
mb
20240523152355 85 230 0.0 0.0 0.00 0.01 0.01 79 1006.9
20240523151745 85 230 0.0 0.0 0.00 0.01 0.01 79 1007.0
20240523151507 85 220 0.0 2.0 0.00 0.01 0.01 79 1007.1
20240523151356 85 220 0.0 2.0 0.00 0.01 0.01 79 1007.1
20240523150744 84 235 0.0 9.0 0.00 0.01 0.01 79 1007.1
20240523150247 84 275 0.0 9.0 0.00 0.01 0.01 79 1007.0
20240523145747 84 326 1.0 5.0 0.00 0.01 0.01 79 1006.9
20240523145248 84 172 0.0 0.0 0.00 0.01 0.01 78 1006.8
20240523144750 84 206 0.0 0.0 0.00 0.01 0.01 78 1006.6
20240523144248 85 42 0.0 2.0 0.00 0.01 0.01 78 1006.5
20240523143746 84 290 0.0 3.0 0.00 0.01 0.01 80 1006.5
20240523143248 84 166 0.0 7.0 0.00 0.01 0.01 79 1006.6
20240523142745 84 254 1.0 10.0 0.00 0.01 0.01 81 1006.6
20240523142248 84 195 2.0 10.0 0.00 0.01 0.01 81 1006.7
20240523141744 83 162 0.0 3.0 0.00 0.01 0.01 82 1006.6
20240523141245 83 182 0.0 5.0 0.00 0.02 0.01 82 1006.5
20240523141227 83 162 0.0 12.0 0.00 0.02 0.01 82 1006.4
20240523140851 83 162 0.0 12.0 0.00 0.02 0.01 82 1006.4
20240523140245 82 179 2.0 12.0 0.00 0.02 0.01 83 1006.5
20240523135743 82 161 0.0 4.0 0.00 0.02 0.01 84 1006.4
20240523135511 82 171 0.0 6.0 0.00 0.02 0.01 84 1006.5
20240523135357 82 171 0.0 6.0 0.00 0.02 0.01 84 1006.5
20240523134742 82 171 0.0 6.0 0.00 0.02 0.01 84 1006.5
20240523134247 82 233 0.0 5.0 0.00 0.02 0.01 85 1006.5
20240523133743 81 154 0.0 3.0 0.00 0.02 0.01 86 1006.5
20240523133243 81 155 0.0 1.0 0.00 0.02 0.01 86 1006.5
20240523132742 81 164 0.0 3.0 0.00 0.02 0.01 86 1006.4
20240523132245 81 164 1.0 3.0 0.00 0.02 0.01 86 1006.4
20240523131742 81 168 0.0 3.0 0.00 0.02 0.01 86 1006.3
20240523131247 81 159 0.0 3.0 0.00 0.02 0.01 86 1006.3
20240523130742 80 344 0.0 3.0 0.00 0.02 0.01 87 1006.2
20240523130243 80 234 0.0 5.0 0.00 0.02 0.01 87 1006.2
20240523125742 80 168 1.0 6.0 0.00 0.02 0.01 87 1006.2
20240523125243 80 127 2.0 6.0 0.00 0.02 0.01 87 1006.3
20240523124741 80 109 0.0 9.0 0.00 0.02 0.01 87 1006.3
20240523124244 80 173 1.0 9.0 0.00 0.02 0.01 87 1006.3
20240523123740 80 190 0.0 7.0 0.00 0.02 0.01 87 1006.2
20240523123500 80 140 1.0 7.0 0.00 0.02 0.01 87 1006.2
20240523123351 80 140 1.0 7.0 0.00 0.02 0.01 87 1006.2
20240523122740 79 149 0.0 4.0 0.00 0.02 0.01 87 1006.1
20240523122505 79 158 0.0 2.0 0.00 0.02 0.01 88 1006.1
20240523122350 79 158 0.0 2.0 0.00 0.02 0.01 88 1006.1
20240523122003 79 138 0.0 2.0 0.00 0.02 0.01 88 1006.0
20240523121850 79 138 0.0 2.0 0.00 0.02 0.01 88 1006.0
20240523121244 79 142 0.0 2.0 0.00 0.02 0.01 88 1006.0
20240523120736 79 128 0.0 2.0 0.00 0.02 0.01 88 1006.0
20240523120240 79 144 0.0 2.0 0.00 0.02 0.01 88 1005.9
20240523115741 79 145 0.0 5.0 0.00 0.02 0.01 88 1005.9
20240523115243 79 152 0.0 5.0 0.00 0.02 0.01 88 1006.0
20240523114741 79 127 0.0 4.0 0.00 0.02 0.01 88 1005.9
20240523114503 0 0.0 0.0 0.00 0.02 0.01 1005.8
20240523114348 0 0.0 0.0 0.00 0.02 0.01 1005.8
20240523113739 0 0.0 0.0 0.00 0.02 0.01 1005.6
20240523113724 79 131 0.0 1.0 0.00 0.02 0.01 88 1005.6
20240523113347 79 131 0.0 1.0 0.00 0.02 0.01 88 1005.6
20240523112738 79 131 0.0 2.0 0.00 0.02 0.01 88 1005.6
20240523112238 79 131 0.0 4.0 0.00 0.02 0.01 88 1005.5
20240523111737 79 75 1.0 4.0 0.00 0.02 0.01 88 1005.4
20240523111240 79 164 1.0 3.0 0.00 0.02 0.01 88 1005.6
20240523110734 79 182 1.0 3.0 0.00 0.02 0.01 88 1005.3
20240523110726 79 124 0.0 2.0 0.00 0.02 0.01 88 1005.4
20240523110346 79 124 0.0 2.0 0.00 0.02 0.01 88 1005.4
20240523105739 79 104 0.0 2.0 0.01 0.02 0.01 88 1005.3
20240523105506 79 341 0.0 2.0 0.01 0.02 0.01 88 1005.4
20240523105346 79 341 0.0 2.0 0.01 0.02 0.01 88 1005.4
20240523104739 79 17 0.0 4.0 0.01 0.02 0.01 88 1005.3
20240523104237 79 92 0.0 4.0 0.01 0.02 0.01 88 1005.3
20240523103742 79 158 0.0 5.0 0.01 0.02 0.01 88 1005.3
20240523103502 79 158 2.0 5.0 0.01 0.02 0.01 88 1005.3
20240523103344 79 158 2.0 5.0 0.01 0.02 0.01 88 1005.3
20240523102740 79 137 0.0 0.0 0.01 0.02 0.01 88 1005.3
20240523102237 79 199 0.0 3.0 0.01 0.02 0.01 88 1005.4
20240523101737 79 151 1.0 3.0 0.01 0.02 0.01 88 1005.5
20240523101238 79 186 0.0 4.0 0.01 0.02 0.01 88 1005.5
20240523100737 79 193 0.0 4.0 0.01 0.02 0.01 88 1005.4
20240523100237 79 164 1.0 4.0 0.01 0.02 0.01 88 1005.5
20240523095737 79 6 0.0 3.0 0.00 0.01 0.00 88 1005.6
20240523095238 79 189 1.0 4.0 0.00 0.01 0.00 88 1005.6
20240523094737 79 241 1.0 4.0 0.00 0.01 0.00 88 1005.8
20240523094236 79 164 1.0 4.0 0.00 0.01 0.00 88 1005.9
20240523093736 79 168 0.0 0.0 0.00 0.01 0.00 88 1006.0
20240523093239 79 168 0.0 0.0 0.00 0.01 0.00 88 1006.0
20240523092736 79 158 0.0 0.0 0.00 0.01 0.00 88 1006.1
20240523092237 79 158 0.0 0.0 0.00 0.01 0.00 88 1006.2
20240523091739 79 158 0.0 0.0 0.00 0.01 0.00 88 1006.1
20240523091727 79 149 0.0 0.0 0.00 0.01 0.00 88 1006.1
20240523091344 79 149 0.0 0.0 0.00 0.01 0.00 88 1006.1
20240523090736 79 144 0.0 0.0 0.00 0.01 0.00 88 1006.1
20240523090235 79 78 0.0 0.0 0.00 0.01 0.00 88 1006.3
20240523085735 79 71 0.0 0.0 0.00 0.01 0.00 88 1006.4
20240523085237 79 147 0.0 0.0 0.00 0.01 0.00 88 1006.4
20240523084735 79 147 0.0 0.0 0.00 0.01 0.00 87 1006.4
20240523084235 80 147 0.0 0.0 0.00 0.01 0.00 87 1006.4
20240523083956 80 147 0.0 0.0 0.00 0.01 0.00 87 1006.5
20240523083842 80 147 0.0 0.0 0.00 0.01 0.00 87 1006.5
20240523083239 80 147 0.0 0.0 0.00 0.01 0.00 87 1006.5
20240523082959 80 147 0.0 0.0 0.00 0.01 0.00 87 1006.5
20240523082840 80 147 0.0 0.0 0.00 0.01 0.00 87 1006.5
20240523082238 80 147 0.0 0.0 0.00 0.01 0.00 88 1006.6
20240523081734 80 147 0.0 0.0 0.00 0.01 0.00 88 1006.5
20240523081236 80 147 0.0 0.0 0.00 0.01 0.00 88 1006.6
20240523080733 80 147 0.0 0.0 0.00 0.01 0.00 88 1006.6
20240523080434 80 175 0.0 0.0 0.00 0.01 0.00 87 1006.8
20240523080328 80 175 0.0 0.0 0.00 0.01 0.00 88 1006.8
20240523075840 80 175 0.0 0.0 0.00 0.01 0.00 87 1006.8
20240523075235 80 175 0.0 0.0 0.00 0.01 0.00 87 1006.7
20240523074733 80 175 0.0 0.0 0.00 0.01 0.00 87 1006.7
20240523074235 80 175 0.0 0.0 0.00 0.01 0.00 87 1006.6
20240523073957 80 175 0.0 0.0 0.00 0.01 0.00 87 1006.5
20240523073839 80 175 0.0 0.0 0.00 0.01 0.00 87 1006.5
20240523073459 80 145 0.0 0.0 0.00 0.01 0.00 87 1006.5
20240523073339 80 145 0.0 0.0 0.00 0.01 0.00 87 1006.5
20240523072732 80 147 0.0 2.0 0.00 0.01 0.00 87 1006.6
20240523072235 80 161 1.0 4.0 0.00 0.01 0.00 87 1006.5
20240523071955 80 161 1.0 4.0 0.00 0.01 0.00 87 1006.6
20240523071838 80 161 1.0 4.0 0.00 0.01 0.00 87 1006.6
20240523071236 80 258 0.0 0.0 0.00 0.01 0.00 87 1006.8
20240523070734 80 268 0.0 1.0 0.00 0.01 0.00 87 1006.7
20240523070459 80 296 0.0 4.0 0.00 0.01 0.00 87 1006.8
20240523070342 80 296 0.0 4.0 0.00 0.01 0.00 87 1006.8
20240523070000 80 197 0.0 4.0 0.00 0.01 0.00 87 1006.8
20240523065840 80 197 0.0 4.0 0.00 0.01 0.00 87 1006.8
20240523065236 80 120 0.0 0.0 0.00 0.01 0.00 87 1006.8
20240523064730 80 133 0.0 0.0 0.00 0.01 0.00 87 1006.7
20240523064232 80 51 0.0 2.0 0.00 0.01 0.00 87 1006.7
20240523063731 80 135 0.0 4.0 0.00 0.01 0.00 87 1006.7
20240523063231 80 144 1.0 4.0 0.00 0.01 0.00 87 1006.8
20240523062730 80 109 0.0 2.0 0.00 0.01 0.00 87 1006.8
20240523062232 80 109 1.0 3.0 0.00 0.01 0.00 87 1006.9
20240523061731 80 85 0.0 4.0 0.00 0.01 0.00 87 1007.0
20240523061720 80 117 0.0 4.0 0.00 0.01 0.00 87 1007.0
20240523061339 80 117 0.0 4.0 0.00 0.01 0.00 87 1007.0
20240523060730 80 130 0.0 0.0 0.00 0.01 0.00 87 1007.1
20240523060232 80 130 0.0 0.0 0.00 0.01 0.00 87 1007.2
20240523055731 80 114 0.0 1.0 0.00 0.01 0.00 87 1007.2
20240523055232 80 72 0.0 2.0 0.00 0.01 0.00 87 1006.9
20240523054732 80 69 0.0 6.0 0.00 0.01 0.00 87 1007.0
20240523054233 80 207 2.0 6.0 0.00 0.01 0.00 87 1007.0
20240523053729 80 200 1.0 3.0 0.00 0.01 0.00 87 1007.1
20240523053231 80 141 0.0 0.0 0.00 0.01 0.00 87 1007.2
20240523052729 80 144 0.0 0.0 0.00 0.01 0.00 87 1007.2
20240523052233 80 151 0.0 2.0 0.00 0.01 0.00 87 1007.2
20240523051731 80 128 0.0 3.0 0.00 0.01 0.00 87 1007.2
20240523051229 80 130 0.0 3.0 0.00 0.01 0.00 87 1007.2
20240523050728 80 83 0.0 4.0 0.00 0.01 0.00 87 1007.2
20240523050230 80 92 1.0 5.0 0.00 0.01 0.00 87 1007.3
20240523045957 80 100 0.0 5.0 0.00 0.01 0.01 87 1007.2
20240523045837 80 100 0.0 5.0 0.00 0.01 0.01 87 1007.2
20240523045452 80 140 1.0 6.0 0.00 0.01 0.01 87 1007.4
20240523045337 80 140 1.0 6.0 0.00 0.01 0.01 87 1007.4
20240523044729 80 58 2.0 6.0 0.00 0.01 0.01 87 1007.5
20240523044230 81 58 1.0 5.0 0.00 0.01 0.01 87 1007.4
20240523043730 81 62 1.0 5.0 0.00 0.01 0.01 87 1007.5
20240523043232 81 152 0.0 1.0 0.00 0.01 0.01 87 1007.5
20240523042727 81 152 0.0 1.0 0.00 0.01 0.01 87 1007.8
20240523042227 81 152 0.0 1.0 0.00 0.01 0.01 87 1007.9
20240523041725 81 131 0.0 4.0 0.00 0.01 0.01 87 1008.1
20240523041230 81 175 1.0 4.0 0.00 0.01 0.01 87 1008.0
20240523040727 81 155 2.0 4.0 0.00 0.01 0.01 87 1008.2
20240523040230 81 94 0.0 3.0 0.00 0.01 0.01 86 1008.4
20240523035727 81 94 0.0 3.0 0.00 0.01 0.01 86 1008.7
20240523035230 81 147 0.0 0.0 0.00 0.01 0.01 86 1008.4
20240523034727 81 147 0.0 0.0 0.00 0.01 0.01 86 1008.6
20240523034228 81 164 0.0 3.0 0.00 0.01 0.01 86 1008.5
20240523033722 82 173 0.0 3.0 0.00 0.01 0.01 86 1008.7
20240523033228 82 135 0.0 0.0 0.00 0.01 0.01 86 1008.8
20240523032727 82 200 0.0 0.0 0.00 0.01 0.01 85 1008.8
20240523032229 82 200 0.0 0.0 0.00 0.01 0.01 85 1008.8
20240523031726 82 200 0.0 0.0 0.00 0.01 0.01 85 1008.6
20240523031230 82 200 0.0 0.0 0.00 0.01 0.01 85 1008.7
20240523030725 82 200 0.0 0.0 0.00 0.01 0.01 85 1008.7
20240523030228 82 200 0.0 0.0 0.00 0.01 0.01 85 1008.5
20240523025727 82 200 0.0 0.0 0.00 0.01 0.01 85 1008.6
20240523025229 82 254 0.0 0.0 0.00 0.01 0.01 85 1008.4
20240523024951 82 230 0.0 0.0 0.00 0.01 0.01 85 1008.1
20240523024834 82 230 0.0 0.0 0.00 0.01 0.01 85 1008.1
20240523024227 82 230 0.0 4.0 0.00 0.01 0.01 84 1007.8
20240523023725 83 171 0.0 4.0 0.00 0.01 0.01 84 1007.5
20240523023230 83 130 0.0 5.0 0.00 0.01 0.01 84 1007.6
20240523022725 83 130 1.0 5.0 0.00 0.01 0.01 84 1007.7
20240523022227 83 117 0.0 0.0 0.00 0.01 0.01 83 1007.5
20240523021724 83 117 0.0 2.0 0.00 0.01 0.01 83 1007.5
20240523021227 83 117 0.0 2.0 0.00 0.01 0.01 83 1007.4
20240523020951 83 117 0.0 1.0 0.00 0.01 0.01 82 1007.1
20240523020833 83 117 0.0 1.0 0.00 0.01 0.01 82 1007.1
20240523020227 83 117 0.0 1.0 0.00 0.01 0.01 82 1007.2
20240523015724 83 117 0.0 1.0 0.00 0.01 0.01 82 1007.1
20240523015226 83 157 0.0 0.0 0.00 0.01 0.01 81 1006.4
20240523014726 83 164 0.0 1.0 0.00 0.01 0.01 81 1005.9
20240523014226 83 158 0.0 3.0 0.00 0.01 0.01 81 1005.8
20240523013725 83 158 0.0 4.0 0.00 0.01 0.01 80 1005.4
20240523013228 83 149 1.0 4.0 0.00 0.01 0.01 80 1005.4
20240523012724 83 178 1.0 4.0 0.00 0.01 0.01 80 1005.4
20240523012222 83 168 1.0 2.0 0.00 0.01 0.01 80 1005.3
20240523011724 83 180 0.0 4.0 0.00 0.01 0.01 79 1005.2
20240523011225 84 180 1.0 4.0 0.00 0.01 0.01 79 1005.2
20240523010945 84 166 0.0 5.0 0.00 0.01 0.01 79 1005.3
20240523010830 84 166 0.0 5.0 0.00 0.01 0.01 79 1005.3
20240523010446 84 168 0.0 5.0 0.00 0.01 0.01 79 1005.0
20240523010332 84 168 0.0 5.0 0.00 0.01 0.01 79 1005.0
20240523005946 84 244 0.0 3.0 0.00 0.01 0.01 79 1004.9
20240523005832 84 244 0.0 3.0 0.00 0.01 0.01 79 1004.9
20240523005225 84 180 0.0 3.0 0.00 0.01 0.01 79 1004.8
20240523004950 84 199 0.0 2.0 0.00 0.01 0.01 78 1004.4
20240523004831 84 199 0.0 2.0 0.00 0.01 0.01 78 1004.4
20240523004222 0 202 0.0 0.0 0.00 0.01 0.01 1004.4
20240523003723 84 197 0.0 4.0 0.00 0.01 0.01 77 1004.1
20240523003223 84 197 2.0 4.0 0.00 0.01 0.01 77 1004.1
20240523002721 85 147 0.0 5.0 0.00 0.01 0.01 77 1004.3
20240523002224 85 166 3.0 5.0 0.00 0.01 0.01 77 1004.7
20240523001944 85 192 0.0 0.0 0.00 0.01 0.01 77 1004.8
20240523001830 85 192 0.0 0.0 0.00 0.01 0.01 77 1004.8
20240523001223 85 192 0.0 0.0 0.00 0.01 0.01 76 1004.8
20240523000950 85 135 0.0 0.0 0.00 0.01 0.01 76 1004.5
20240523000829 85 135 0.0 0.0 0.00 0.01 0.01 76 1004.5
20240523000223 85 66 0.0 0.0 0.00 0.01 0.01 76 1004.6
20240522235722 85 290 0.0 0.0 0.00 0.01 0.01 76 1004.4
20240522235224 86 152 0.0 3.0 0.00 0.01 0.01 75 1004.4
20240522234721 86 149 0.0 3.0 0.00 0.01 0.01 75 1004.4
20240522234221 86 147 0.0 4.0 0.00 0.01 0.01 75 1004.4
20240522233732 86 97 0.0 7.0 0.00 0.01 0.01 74 1004.6
20240522233223 86 166 2.0 7.0 0.00 0.01 0.01 74 1004.6
20240522232721 87 138 0.0 6.0 0.00 0.01 0.01 73 1004.5
20240522232222 87 223 1.0 6.0 0.00 0.01 0.01 73 1004.6
20240522231721 87 221 0.0 3.0 0.00 0.01 0.01 72 1004.7
20240522231222 87 164 0.0 3.0 0.00 0.01 0.01 72 1004.7
20240522230718 87 165 0.0 3.0 0.00 0.01 0.01 72 1004.7
20240522230223 87 178 0.0 4.0 0.00 0.01 0.01 72 1004.5
20240522225722 88 183 1.0 4.0 0.00 0.01 0.01 71 1004.3
20240522225234 88 44 0.0 7.0 0.00 0.01 0.01 71 1004.2
20240522224719 88 159 2.0 7.0 0.00 0.01 0.01 71 1004.2
20240522224224 88 145 0.0 6.0 0.00 0.01 0.01 70 1004.2
20240522223719 88 180 2.0 6.0 0.00 0.01 0.01 70 1004.3
20240522223223 88 305 1.0 5.0 0.00 0.01 0.01 70 1004.1
20240522222719 89 169 0.0 0.0 0.00 0.01 0.01 70 1003.9
20240522222235 89 161 0.0 4.0 0.00 0.01 0.01 69 1004.1
20240522221924 89 176 0.0 0.0 0.00 0.01 0.01 68 1004.1
20240522221815 89 216 0.0 4.0 0.00 0.01 0.01 69 1003.9
20240522221330 89 176 0.0 0.0 0.00 0.01 0.01 68 1004.1
20240522220718 89 244 0.0 3.0 0.00 0.01 0.01 70 1004.2
20240522220233 89 134 0.0 3.0 0.00 0.01 0.01 70 1004.0
20240522215720 89 164 0.0 6.0 0.00 0.01 0.01 69 1004.0
20240522215220 89 171 1.0 6.0 0.00 0.01 0.01 70 1004.0
20240522214717 89 148 0.0 7.0 0.00 0.01 0.01 69 1004.1
20240522214220 89 158 0.0 9.0 0.00 0.01 0.01 69 1004.2
20240522213717 89 166 1.0 9.0 0.00 0.01 0.01 68 1004.2
20240522213222 89 155 0.0 1.0 0.00 0.01 0.01 68 1004.1
20240522212717 90 252 0.0 4.0 0.00 0.01 0.01 68 1004.1
20240522212218 90 189 1.0 5.0 0.00 0.01 0.01 68 1004.0
20240522211716 89 151 1.0 5.0 0.00 0.01 0.01 68 1004.0
20240522211217 89 251 2.0 4.0 0.00 0.01 0.01 67 1004.0
20240522210716 89 142 0.0 1.0 0.00 0.01 0.01 68 1004.2
20240522210446 89 157 0.0 6.0 0.00 0.01 0.01 68 1004.2
20240522210325 89 157 0.0 6.0 0.00 0.01 0.01 68 1004.2
20240522205715 90 152 0.0 6.0 0.00 0.01 0.01 67 1004.4
20240522205218 90 254 1.0 4.0 0.00 0.01 0.01 68 1004.3
20240522204716 90 149 0.0 5.0 0.00 0.01 0.01 68 1004.5
20240522204216 90 259 0.0 5.0 0.00 0.01 0.01 68 1004.5
20240522203927 90 152 2.0 6.0 0.00 0.01 0.01 67 1004.5
20240522203812 90 161 1.0 6.0 0.00 0.01 0.01 67 1004.5
20240522203322 90 152 2.0 6.0 0.00 0.01 0.01 67 1004.5
20240522202945 91 149 0.0 4.0 0.00 0.01 0.01 66 1004.7
20240522202825 91 149 0.0 4.0 0.00 0.01 0.01 66 1004.7
20240522202439 91 189 0.0 2.0 0.00 0.01 0.01 66 1004.8
20240522202324 91 189 0.0 2.0 0.00 0.01 0.01 66 1004.8
20240522201714 91 147 0.0 4.0 0.00 0.01 0.01 65 1004.8
20240522201215 91 154 0.0 4.0 0.00 0.01 0.01 66 1005.0
20240522200714 91 72 0.0 3.0 0.00 0.01 0.01 66 1005.1
20240522200215 91 75 0.0 5.0 0.00 0.01 0.01 68 1005.3
20240522195713 91 135 2.0 5.0 0.00 0.01 0.01 67 1005.3
20240522195213 90 197 2.0 5.0 0.00 0.01 0.01 67 1005.3
20240522194713 90 207 1.0 5.0 0.00 0.01 0.01 68 1005.4
20240522194215 89 189 0.0 4.0 0.00 0.01 0.01 68 1005.4
20240522193713 89 141 0.0 7.0 0.00 0.01 0.01 69 1005.5
20240522193436 88 195 0.0 7.0 0.00 0.01 0.01 70 1005.5
20240522193322 88 195 0.0 7.0 0.00 0.01 0.01 70 1005.5
20240522192933 88 231 0.0 4.0 0.00 0.01 0.01 71 1005.4
20240522192816 88 172 2.0 6.0 0.00 0.01 0.01 71 1005.6
20240522192329 88 231 0.0 4.0 0.00 0.01 0.01 71 1005.4
20240522191715 88 154 0.0 4.0 0.00 0.01 0.01 71 1005.5
20240522191214 88 152 0.0 3.0 0.00 0.01 0.01 69 1005.7
20240522190713 89 183 0.0 3.0 0.00 0.01 0.01 69 1006.0
20240522190214 89 183 1.0 3.0 0.00 0.01 0.01 69 1006.2
20240522185713 89 173 0.0 3.0 0.00 0.01 0.01 67 1006.2
20240522185216 90 188 0.0 3.0 0.00 0.01 0.01 66 1006.3
20240522185203 91 157 0.0 2.0 0.00 0.01 0.01 66 1006.3
20240522184822 91 157 0.0 2.0 0.00 0.01 0.01 66 1006.3
20240522184214 91 288 0.0 2.0 0.00 0.01 0.01 66 1006.5
20240522183934 91 182 0.0 5.0 0.00 0.01 0.01 66 1006.7
20240522183821 91 182 0.0 5.0 0.00 0.01 0.01 66 1006.7
20240522183701 91 158 1.0 5.0 0.00 0.01 0.01 64 1006.7
20240522183322 91 158 1.0 5.0 0.00 0.01 0.01 64 1006.7
20240522182711 91 243 1.0 4.0 0.00 0.01 0.01 66 1006.7
20240522182214 91 159 0.0 0.0 0.00 0.01 0.01 67 1006.7
20240522181713 90 179 0.0 0.0 0.00 0.01 0.01 68 1006.6
20240522181212 90 176 0.0 0.0 0.00 0.01 0.01 68 1006.5
20240522180712 90 200 0.0 2.0 0.00 0.01 0.01 71 1006.5
20240522180214 89 312 0.0 2.0 0.00 0.01 0.01 71 1006.7
20240522175715 89 200 0.0 6.0 0.00 0.01 0.01 71 1006.8
20240522175213 88 347 0.0 6.0 0.00 0.01 0.01 71 1006.9
20240522174709 0 0.0 7.0 0.00 0.01 0.01 1007.0
20240522174213 88 196 1.0 7.0 0.00 0.01 0.01 72 1007.1
20240522173712 88 176 0.0 4.0 0.00 0.01 0.01 72 1007.1
20240522173213 88 220 0.0 1.0 0.00 0.01 0.01 71 1007.1
20240522172711 88 221 0.0 1.0 0.00 0.01 0.01 71 1007.3
20240522172215 88 219 0.0 0.0 0.00 0.01 0.01 71 1007.4
20240522171711 89 219 0.0 2.0 0.00 0.01 0.01 71 1007.6
20240522171211 89 219 0.0 3.0 0.00 0.01 0.01 71 1007.7
20240522170709 89 223 0.0 5.0 0.00 0.01 0.01 70 1007.5
20240522170210 89 171 0.0 5.0 0.00 0.01 0.01 68 1007.4
20240522165711 89 245 0.0 0.0 0.00 0.01 0.01 70 1007.3
20240522165211 89 248 0.0 0.0 0.00 0.01 0.01 69 1007.1
20240522164709 89 251 0.0 3.0 0.00 0.01 0.01 71 1007.2
20240522164212 89 188 0.0 3.0 0.00 0.01 0.01 71 1007.2
20240522163708 88 172 0.0 3.0 0.00 0.01 0.01 71 1007.3
20240522163212 88 206 1.0 3.0 0.00 0.01 0.01 70 1007.2
20240522162708 88 169 0.0 3.0 0.00 0.01 0.01 69 1007.2
20240522162210 89 140 1.0 3.0 0.00 0.01 0.01 71 1007.1
20240522161709 89 48 0.0 2.0 0.00 0.01 0.01 70 1007.1
20240522161212 89 272 0.0 3.0 0.00 0.01 0.01 70 1007.2
20240522160710 89 114 0.0 4.0 0.00 0.01 0.01 72 1007.3
20240522160213 88 210 0.0 4.0 0.00 0.01 0.01 72 1007.4
20240522155707 88 210 1.0 4.0 0.00 0.01 0.01 72 1007.3
20240522155211 88 166 0.0 1.0 0.00 0.01 0.01 74 1007.1
20240522154709 87 234 0.0 5.0 0.00 0.01 0.01 76 1007.2
20240522154209 87 159 2.0 5.0 0.00 0.01 0.01 77 1007.2
20240522153708 86 116 0.0 3.0 0.00 0.01 0.01 79 1007.2
20240522153211 86 178 2.0 3.0 0.00 0.01 0.01 79 1007.2
20240522152708 86 179 0.0 2.0 0.00 0.01 0.01 79 1007.2